Location: Dammartin
(48.9032°N, 1.6195°E)
Time: 16:18:29
(UTC+00:00)

Cosmos 2266 Rocket - Pass Details

Date: 03 February 2023
Orbit: 933 x 1008 km, 82.9° (Epoch: 30 March)

Event Time Altitude Azimuth Distance (km) Brightness Sun altitude
Rises 17:35:53 0° 349° (N) 3,718 7.0 -7.3°
Reaches altitude 10° 17:38:27 10° 348° (NNW) 2,755 6.3 -7.7°
Maximum altitude 17:44:45 76° 265° (W) 1,004 4.3 -8.7°
Drops below altitude 10° 17:50:53 10° 180° (S) 2,684 6.5 -9.7°
Sets 17:53:20 0° 179° (S) 3,615 7.1 -10.1°
